CZ-3B DEB, 40193

Orbit data source: Space-Track

CZ-3B DEB, 40193 is space debris in HEO originally from a launch on Mon, 19 Dec 2011 UTC launched from the Xichang Space Center, China (XSC). Debris objects in space refer to the collection of defunct objects orbiting the Earth. Examples of debris include non-operational satellites, rocket bodies, and fragments generated from explosions, collisions, or faulty payload assembly.

Loading next visibility...
Identifier
40193, 2011-077S
Orbit
HEO
Country
Flag of CNCN / PRC
Related business
Manufacturer
CALT
Mission
Spacecraft
Bus & Motor
Unknown
Mass
Unknown
Launch date (UTC)
2011-12-19 (15 years ago)
Launch vehicle
Unknown
Launch site
Xichang Space Center, China (XSC)
Object type
Payload
Rocket body
Debris
Shape & HBR
Unknown shape, 0.2 m
Radar Cross Section
Medium (>0.1 m² and <1 m²)

Expand to show TLE details & history
Last TLE update: 3 days ago

TLE from 3 days ago
0 CZ-3B DEB
1 40193U 11077S   26170.49274409 -.00000287  00000-0 -10596-1 0  9999
2 40193  26.5834  29.9870 7414401 338.2373   2.2548  1.86793370 76202
Epoch: 2026-06-19T11:49Z
TLE epoch observation values (Epoch: 2026-06-19T11:49:33.089Z)
Latitude
0.00221°
Longitude
-55.10901°
Altitude
1,084.789 km
Speed
9.618 km/s
True Right ascension
01h 59m 59s
True Declination
0° 00' 08"
Sunlit
Object was in daylight at epoch
Visualization orbit readout
Latitude
Unknown
Longitude
Unknown
Altitude
Unknown
Speed
Unknown
Apparent Right ascension
Unknown
Apparent Declination
Unknown
Sunlit
N/A
Visualization observer readout
Local Sidereal Time
23:19:45
Azimuth
Unknown
Elevation
Unknown
Doppler factor
Unknown
Orbital elements
Apogee altitude
42,127.638 km
Perigee altitude
823.746 km
Semi-major axis
27,853.829 km
Eccentricity
0.74144
Inclination
26.5834°
RAAN
29.987°
Arg. of periapsis
338.2373°
True anomaly
22.15182°
Mean anomaly
2.2548°
Eccentric anomaly
8.62723°
Mean motion
0.46689 °/min
Orbital period
771.06 mins
BSTAR
-0.010596
Loading maneuver chart data...
Computing Atmospheric mass density...
Loading historical data...
Loading historical data...
Loading historical data...
Loading historical data...
Loading historical data...
Loading historical data...
Loading historical data...

Documentation

Showing up to 5 results
|